Regional Weather Roundup
Issued by NWS State College, PA

Home | Current Version | Previous Version | Text Only | Print | Product List | Glossary On
Versions: 1 2 3 4 5 6 7 8 9 10 11 12 13 14 15 16 17 18 19 20 21 22 23 24 25 26 27 28 29 30 31 32 33 34 35 36 37 38 39 40 41 42 43 44 45 46 47 48 49 50
000
ASUS41 KCTP 241010
RWRCTP

REGIONAL WEATHER ROUNDUP
NATIONAL WEATHER SERVICE STATE COLLEGE PA
600 AM EDT TUE OCT 24 2017

Note: "fair" indicates few or no clouds below 12,000 feet with no
significant weather and/or obstructions to visibility.

* = STATION THAT DOES NOT REPORT PRECIPITATION /E.G. RAIN...SNOW...ETC/
    THUNDER OR FOG.

PAZ002>004-007>009-013>016-020>023-029>032-241100-
WESTERN PENNSYLVANIA

CITY           SKY/WX    TMP DP  RH WIND       PRES   REMARKS
ERIE           MOCLDY    53  49  86 SW14      29.61R
MEADVILLE      LGT RAIN  49  49 100 SW9       29.65R
FRANKLIN*      CLOUDY    53  50  89 SW13      29.66R
NEW CASTLE     CLOUDY    52  49  89 VRB3      29.68R
BEAVER COUNTY  NOT AVBL
BUTLER*        LGT RAIN  54  52  94 S9        29.69R FOG
PITTSBURGH INT LGT RAIN  53  52  96 S8        29.69R
PITTSBURGH     CLOUDY    54  49  83 SW13      29.69R
INDIANA*       CLOUDY    55  54  94 SW8       29.73R
LATROBE        CLOUDY    55  54  94 S12G17    29.72R
WASHINGTON CO* CLOUDY    54  50  86 SW9       29.73S
$$

PAZ004>006-010>012-017>019-024>028-033>037-041-042-045-046-049>053-241100-
CENTRAL PENNSYLVANIA

CITY           SKY/WX    TMP DP  RH WIND       PRES   REMARKS
BRADFORD       MOCLDY    53  51  93 SW9G18    29.66R
DUBOIS         LGT RAIN  53  50  89 SW13G21   29.68R FOG
CLEARFIELD     CLOUDY    56  52  86 S8        29.69S
JOHNSTOWN      CLOUDY    53  49  86 SW17G24   29.72R
ALTOONA        CLEAR     55  50  83 S6        29.73R
STATE COLLEGE  CLEAR     54  52  94 CALM      29.71R
WILLIAMSPORT   LGT RAIN  65  62  90 W8G20     29.64R
SELINSGROVE    LGT RAIN  62  62 100 S8        29.71R FOG
FT INDIANTOWN  LGT RAIN  66  66 100 SW16G26   29.70R
CAPITAL CITY   LGT RAIN  65  61  87 SW7       29.72R
HARRISBURG     LGT RAIN  65  63  93 SW15      29.71R
YORK           CLOUDY    63  62  97 SW7       29.72R
$$

PAZ038>040-043-044-047-048-054-055-060>062-067>071-241100-
EASTERN PENNSYLVANIA

CITY           SKY/WX    TMP DP  RH WIND       PRES   REMARKS
SCRANTON       RAIN      69  64  84 S13G18    29.71S
MOUNT POCONO   CLOUDY    63  63 100 S21G36    29.79F
ALLENTOWN      LGT RAIN  71  64  78 S16G24    29.77S
QUAKERTOWN*    CLOUDY    68  66  94 S9G20     29.79R
READING        LGT RAIN  69  68  96 S9G21     29.72S
LANCASTER      CLOUDY    70  68  93 S18G31    29.72R
COATESVILLE    LGT RAIN  68  68 100 S10       29.77F
POTTSTOWN      LGT RAIN  69  66  90 S8G21     29.78R
BLUE BELL      CLOUDY    68  64  88 S14G22    29.81R
DOYLESTOWN     LGT RAIN  69  65  86 S14G21    29.79S
WILLOW GROVE   NOT AVBL
NORTH PHILA    CLOUDY    75  65  70 SW12G29   29.81R
PHILADELPHIA   CLOUDY    72  64  76 S22G37    29.78F
$$



USA.gov is the U.S. government's official web portal to all federal, state and local government web resources and services.